EW9366 Weather Reports


Display with metric or nautical units.
time (UTC)temp
F
wind
direction
speed
MPH
gust
MPH
rain 1hr
in
rain 24hr
in
rain mn
in
humidity
%
barometer
mb
20260904005751 90 144 0.0 3.0 0.00 0.00 0.00 53 1012.6
20260904005244 91 157 0.0 3.0 0.00 0.00 0.00 52 1012.6
20260904004741 91 138 0.0 2.0 0.00 0.00 0.00 51 1012.4
20260904004241 92 165 1.0 2.0 0.00 0.00 0.00 50 1012.4
20260904003744 93 128 1.0 2.0 0.00 0.00 0.00 49 1012.4
20260904003227 94 127 0.0 2.0 0.00 0.00 0.00 48 1012.4
20260904002724 95 136 0.0 2.0 0.00 0.00 0.00 47 1012.4
20260904002211 96 134 0.0 1.0 0.00 0.00 0.00 47 1012.3
20260904001644 96 129 0.0 3.0 0.00 0.00 0.00 46 1012.4
20260904001125 97 136 0.0 3.0 0.00 0.00 0.00 45 1012.3
20260904000600 97 140 0.0 2.0 0.00 0.00 0.00 45 1012.3
20260904000038 97 138 1.0 2.0 0.00 0.00 0.00 45 1012.3
20260903235524 97 129 1.0 4.0 0.00 0.00 0.00 44 1012.3
20260903235022 97 134 1.0 4.0 0.00 0.00 0.00 44 1012.3
20260903234522 98 127 1.0 5.0 0.00 0.00 0.00 44 1012.3
20260903234011 98 123 1.0 4.0 0.00 0.00 0.00 44 1012.3
20260903233950 98 141 0.0 2.0 0.00 0.00 0.00 44 1012.3
20260903233008 98 335 0.0 4.0 0.00 0.00 0.00 44 1012.3
20260903232511 98 298 0.0 4.0 0.00 0.00 0.00 44 1012.3
20260903232005 98 36 0.0 2.0 0.00 0.00 0.00 44 1012.3
20260903231505 98 136 1.0 5.0 0.00 0.00 0.00 44 1012.4
20260903231436 98 147 1.0 5.0 0.00 0.00 0.00 44 1012.3
20260903230442 98 56 1.0 5.0 0.00 0.00 0.00 44 1012.3
20260903225942 98 98 1.0 5.0 0.00 0.00 0.00 44 1012.2
20260903225415 98 120 1.0 5.0 0.00 0.00 0.00 44 1012.2
20260903225357 98 96 1.0 5.0 0.00 0.00 0.00 44 1012.2
20260903224413 99 153 2.0 6.0 0.00 0.00 0.00 43 1012.3
20260903223909 99 177 2.0 6.0 0.00 0.00 0.00 44 1012.1
20260903223356 99 181 2.0 4.0 0.00 0.00 0.00 44 1012.1
20260903222854 98 222 1.0 6.0 0.00 0.00 0.00 44 1012.1
20260903222356 98 138 1.0 6.0 0.00 0.00 0.00 44 1012.1
20260903221852 98 149 1.0 4.0 0.00 0.00 0.00 44 1012.2
20260903221352 98 179 1.0 4.0 0.00 0.00 0.00 44 1012.2
20260903220855 98 191 1.0 3.0 0.00 0.00 0.00 44 1012.1
20260903220352 98 161 1.0 4.0 0.00 0.00 0.00 44 1012.2
20260903220337 98 119 2.0 4.0 0.00 0.00 0.00 44 1012.3
20260903215346 98 174 2.0 4.0 0.00 0.00 0.00 44 1012.3
20260903214847 98 218 2.0 4.0 0.00 0.00 0.00 45 1012.3
20260903214324 98 190 2.0 6.0 0.00 0.00 0.00 44 1012.4
20260903213801 98 173 2.0 6.0 0.00 0.00 0.00 44 1012.4
20260903213237 98 186 2.0 5.0 0.00 0.00 0.00 43 1012.5
20260903212736 99 175 2.0 6.0 0.00 0.00 0.00 43 1012.6
20260903212237 99 197 2.0 7.0 0.00 0.00 0.00 43 1012.5
20260903211737 99 140 1.0 7.0 0.00 0.00 0.00 42 1012.6
20260903211235 99 199 1.0 5.0 0.00 0.00 0.00 43 1012.5
20260903211206 99 223 2.0 5.0 0.00 0.00 0.00 43 1012.5
20260903210147 99 201 2.0 5.0 0.00 0.00 0.00 42 1012.6
20260903205640 100 193 2.0 5.0 0.00 0.00 0.00 42 1012.6
20260903205123 99 124 2.0 4.0 0.00 0.00 0.00 43 1012.7
20260903204617 99 127 2.0 5.0 0.00 0.00 0.00 44 1012.7
20260903204050 99 137 2.0 5.0 0.00 0.00 0.00 43 1012.8
20260903204024 100 60 2.0 3.0 0.00 0.00 0.00 42 1012.8
20260903203017 100 107 1.0 6.0 0.00 0.00 0.00 44 1012.9
20260903202517 99 188 2.0 6.0 0.00 0.00 0.00 43 1012.9
20260903201959 100 120 2.0 5.0 0.00 0.00 0.00 41 1013.0
20260903201433 101 130 2.0 4.0 0.00 0.00 0.00 41 1012.9
20260903200932 102 199 1.0 5.0 0.00 0.00 0.00 41 1013.1
20260903200408 102 148 2.0 5.0 0.00 0.00 0.00 42 1013.0
20260903195901 101 205 2.0 5.0 0.00 0.00 0.00 42 1013.0
20260903195334 101 210 1.0 5.0 0.00 0.00 0.00 43 1013.2
20260903194808 101 176 2.0 6.0 0.00 0.00 0.00 42 1013.2
20260903194244 101 81 2.0 6.0 0.00 0.00 0.00 43 1013.2
20260903194207 102 113 2.0 6.0 0.00 0.00 0.00 40 1013.2
20260903193215 102 151 1.0 5.0 0.00 0.00 0.00 40 1013.4
20260903192705 102 197 2.0 5.0 0.00 0.00 0.00 41 1013.4
20260903192204 101 136 2.0 5.0 0.00 0.00 0.00 42 1013.5
20260903191646 101 210 2.0 5.0 0.00 0.00 0.00 41 1013.5
20260903191144 101 145 1.0 5.0 0.00 0.00 0.00 42 1013.6
20260903190645 101 191 1.0 5.0 0.00 0.00 0.00 42 1013.6
20260903190142 101 233 2.0 5.0 0.00 0.00 0.00 41 1013.6
20260903185641 101 202 2.0 7.0 0.00 0.00 0.00 42 1013.7
20260903185126 101 133 1.0 7.0 0.00 0.00 0.00 43 1013.8
20260903184604 100 190 1.0 7.0 0.00 0.00 0.00 44 1013.9
20260903184055 100 147 2.0 6.0 0.00 0.00 0.00 45 1014.0
20260903184033 100 199 2.0 6.0 0.00 0.00 0.00 43 1014.1
20260903183024 100 142 1.0 5.0 0.00 0.00 0.00 44 1014.3
20260903182504 99 207 2.0 5.0 0.00 0.00 0.00 45 1014.6
20260903181956 99 210 2.0 5.0 0.00 0.00 0.00 44 1014.5
20260903181450 99 133 2.0 6.0 0.00 0.00 0.00 47 1014.7
20260903180926 99 133 2.0 6.0 0.00 0.00 0.00 46 1014.6
20260903180358 99 134 2.0 5.0 0.00 0.00 0.00 45 1014.7
20260903175858 99 195 2.0 4.0 0.00 0.00 0.00 45 1014.8
20260903175829 99 186 2.0 7.0 0.00 0.00 0.00 46 1014.9
20260903174805 99 193 2.0 8.0 0.00 0.00 0.00 46 1014.9
20260903174237 99 134 2.0 5.0 0.00 0.00 0.00 47 1015.0
20260903173714 99 208 2.0 4.0 0.00 0.00 0.00 46 1015.1
20260903173215 98 212 1.0 5.0 0.00 0.00 0.00 47 1015.2
20260903172646 98 124 2.0 5.0 0.00 0.00 0.00 47 1015.2
20260903172141 98 160 2.0 4.0 0.00 0.00 0.00 47 1015.3
20260903171639 98 215 2.0 5.0 0.00 0.00 0.00 47 1015.3
20260903171134 98 153 2.0 5.0 0.00 0.00 0.00 48 1015.3
20260903170609 98 183 2.0 6.0 0.00 0.00 0.00 48 1015.5
20260903170109 98 127 2.0 6.0 0.00 0.00 0.00 48 1015.4
20260903165553 97 165 1.0 5.0 0.00 0.00 0.00 48 1015.6
20260903165053 97 137 2.0 5.0 0.00 0.00 0.00 49 1015.6
20260903164528 96 127 2.0 5.0 0.00 0.00 0.00 49 1015.7
20260903164024 96 137 2.0 6.0 0.00 0.00 0.00 50 1015.7
20260903163510 95 111 2.0 6.0 0.00 0.00 0.00 50 1015.7
20260903163004 95 134 2.0 5.0 0.00 0.00 0.00 51 1015.7
20260903162948 95 116 2.0 6.0 0.00 0.00 0.00 51 1015.8
20260903161958 95 146 2.0 6.0 0.00 0.00 0.00 51 1015.9
20260903161454 94 149 2.0 7.0 0.00 0.00 0.00 51 1015.9
20260903161407 94 158 2.0 7.0 0.00 0.00 0.00 52 1015.9
20260903160402 95 113 2.0 5.0 0.00 0.00 0.00 52 1015.8
20260903160322 95 120 1.0 5.0 0.00 0.00 0.00 51 1016.0
20260903155307 94 207 1.0 4.0 0.00 0.00 0.00 52 1015.9
20260903154805 93 128 2.0 5.0 0.00 0.00 0.00 55 1016.0
20260903154241 93 207 2.0 6.0 0.00 0.00 0.00 54 1015.9
20260903153714 92 150 3.0 6.0 0.00 0.00 0.00 54 1015.9
20260903153203 92 141 2.0 5.0 0.00 0.00 0.00 54 1015.8
20260903152702 93 117 2.0 5.0 0.00 0.00 0.00 54 1015.9
20260903152203 92 208 2.0 7.0 0.00 0.00 0.00 55 1015.9
20260903151648 92 173 2.0 5.0 0.00 0.00 0.00 56 1015.9
20260903151120 91 120 2.0 7.0 0.00 0.00 0.00 56 1015.9
20260903150552 91 136 2.0 7.0 0.00 0.00 0.00 57 1016.0
20260903150048 91 148 2.0 6.0 0.00 0.00 0.00 57 1016.0
20260903145548 91 146 2.0 5.0 0.00 0.00 0.00 57 1016.1
20260903145018 92 146 1.0 5.0 0.00 0.00 0.00 57 1016.2
20260903144518 91 132 1.0 3.0 0.00 0.00 0.00 59 1016.3
20260903144018 91 130 1.0 3.0 0.00 0.00 0.00 60 1016.3
20260903143955 91 143 1.0 3.0 0.00 0.00 0.00 59 1016.3
20260903143013 91 217 1.0 3.0 0.00 0.00 0.00 59 1016.3
20260903142506 90 144 1.0 3.0 0.00 0.00 0.00 60 1016.4
20260903141946 91 196 1.0 3.0 0.00 0.00 0.00 60 1016.5
20260903141412 90 141 0.0 3.0 0.00 0.00 0.00 59 1016.5
20260903140853 90 201 0.0 3.0 0.00 0.00 0.00 61 1016.5
20260903140327 89 205 1.0 3.0 0.00 0.00 0.00 62 1016.5
20260903135803 89 151 1.0 3.0 0.00 0.00 0.00 63 1016.6
20260903135256 88 142 0.0 2.0 0.00 0.00 0.00 65 1016.6
20260903135239 88 139 0.0 2.0 0.00 0.00 0.00 66 1016.7
20260903134227 87 159 0.0 2.0 0.00 0.00 0.00 67 1016.6
20260903133725 86 193 0.0 3.0 0.00 0.00 0.00 67 1016.6
20260903133222 86 136 0.0 3.0 0.00 0.00 0.00 68 1016.6
20260903132721 85 162 0.0 2.0 0.00 0.00 0.00 69 1016.6
20260903132635 85 182 0.0 2.0 0.00 0.00 0.00 70 1016.5
20260903131651 84 145 0.0 2.0 0.00 0.00 0.00 71 1016.5
20260903131122 84 144 0.0 0.0 0.00 0.00 0.00 72 1016.5
20260903130622 83 144 0.0 0.0 0.00 0.00 0.00 73 1016.5
20260903130117 82 144 0.0 0.0 0.00 0.00 0.00 75 1016.5
20260903125116 81 151 0.0 0.0 0.00 0.00 0.00 77 1016.5
20260903124617 80 151 0.0 0.0 0.00 0.00 0.00 79 1016.4
20260903124051 79 156 0.0 0.0 0.00 0.00 0.00 81 1016.5
20260903123525 78 156 0.0 0.0 0.00 0.00 0.00 84 1016.5
20260903123021 77 156 0.0 0.0 0.00 0.00 0.00 86 1016.4
20260903122519 75 156 0.0 0.0 0.00 0.00 0.00 88 1016.2
20260903122437 74 156 0.0 0.0 0.00 0.00 0.00 88 1016.2
20260903121427 73 156 0.0 0.0 0.00 0.00 0.00 88 1016.2
20260903121346 72 156 0.0 0.0 0.00 0.00 0.00 88 1016.1
20260903120843 72 156 0.0 0.0 0.00 0.00 0.00 87 1016.0
20260903115828 72 156 0.0 0.0 0.00 0.00 0.00 87 1016.0
20260903115817 72 156 0.0 0.0 0.00 0.00 0.00 87 1016.0
20260903114758 72 156 0.0 0.0 0.00 0.00 0.00 88 1016.0
20260903114257 72 156 0.0 0.0 0.00 0.00 0.00 88 1015.9
20260903113728 72 156 0.0 0.0 0.00 0.00 0.00 88 1015.8
20260903113714 72 156 0.0 0.0 0.00 0.00 0.00 87 1015.8
20260903112659 72 156 0.0 0.0 0.00 0.00 0.00 87 1015.7
20260903112131 72 156 0.0 0.0 0.00 0.00 0.00 87 1015.8
20260903111603 73 156 0.0 0.0 0.00 0.00 0.00 87 1015.8
20260903111035 73 156 0.0 0.0 0.00 0.00 0.00 87 1015.8
20260903110531 73 156 0.0 0.0 0.00 0.00 0.00 87 1015.8
20260903110029 73 156 0.0 0.0 0.00 0.00 0.00 86 1015.8
20260903105500 73 156 0.0 0.0 0.00 0.00 0.00 86 1015.7
20260903105449 73 156 0.0 0.0 0.00 0.00 0.00 86 1015.8
20260903104917 73 156 0.0 0.0 0.00 0.00 0.00 86 1015.8
20260903103912 73 156 0.0 0.0 0.00 0.00 0.00 86 1015.8
20260903103345 73 156 0.0 0.0 0.00 0.00 0.00 86 1015.7
20260903102817 73 156 0.0 0.0 0.00 0.00 0.00 85 1015.7
20260903102248 73 156 0.0 0.0 0.00 0.00 0.00 85 1015.7
20260903101726 73 156 0.0 0.0 0.00 0.00 0.00 85 1015.7
20260903101224 74 156 0.0 0.0 0.00 0.00 0.00 84 1015.6
20260903100725 74 156 0.0 0.0 0.00 0.00 0.00 84 1015.6
20260903100156 74 156 0.0 0.0 0.00 0.00 0.00 84 1015.6
20260903095644 74 156 0.0 0.0 0.00 0.00 0.00 84 1015.6
20260903095146 74 156 0.0 0.0 0.00 0.00 0.00 84 1015.6
20260903094618 74 156 0.0 0.0 0.00 0.00 0.00 84 1015.5
20260903094117 74 156 0.0 0.0 0.00 0.00 0.00 84 1015.6
20260903093547 74 156 0.0 0.0 0.00 0.00 0.00 84 1015.6
20260903093524 74 156 0.0 0.0 0.00 0.00 0.00 84 1015.5
20260903092523 74 156 0.0 0.0 0.00 0.00 0.00 84 1015.5
20260903092023 74 155 0.0 0.0 0.00 0.00 0.00 84 1015.6
20260903091522 74 156 0.0 0.0 0.00 0.00 0.00 83 1015.5
20260903090952 74 156 0.0 0.0 0.00 0.00 0.00 83 1015.5
20260903090452 74 156 0.0 0.0 0.00 0.00 0.00 83 1015.5
20260903090405 74 156 0.0 0.0 0.00 0.00 0.00 82 1015.4
20260903085420 74 156 0.0 0.0 0.00 0.00 0.00 82 1015.5
20260903084856 75 156 0.0 0.0 0.00 0.00 0.00 82 1015.4
20260903084326 75 156 0.0 0.0 0.00 0.00 0.00 82 1015.5
20260903084312 75 156 0.0 0.0 0.00 0.00 0.00 82 1015.6
20260903083320 75 156 0.0 0.0 0.00 0.00 0.00 82 1015.5
20260903082823 75 156 0.0 0.0 0.00 0.00 0.00 82 1015.5
20260903082306 75 156 0.0 0.0 0.00 0.00 0.00 82 1015.6
20260903081750 75 156 0.0 0.0 0.00 0.00 0.00 81 1015.4
20260903081253 75 156 0.0 0.0 0.00 0.00 0.00 81 1015.4
20260903080724 75 156 0.0 0.0 0.00 0.00 0.00 81 1015.4
20260903080222 75 156 0.0 0.0 0.00 0.00 0.00 81 1015.4
20260903075657 75 156 0.0 0.0 0.00 0.00 0.00 81 1015.3
20260903075128 75 156 0.0 0.0 0.00 0.00 0.00 81 1015.3
20260903074627 75 156 0.0 0.0 0.00 0.00 0.00 81 1015.3
20260903074058 75 156 0.0 0.0 0.00 0.00 0.00 81 1015.3
20260903074042 75 156 0.0 0.0 0.00 0.00 0.00 80 1015.3
20260903073031 75 156 0.0 0.0 0.00 0.00 0.00 80 1015.3
20260903072517 75 156 0.0 0.0 0.00 0.00 0.00 80 1015.3
20260903072021 75 156 0.0 0.0 0.00 0.00 0.00 80 1015.3
20260903071452 75 156 0.0 0.0 0.00 0.00 0.00 80 1015.2
20260903070950 75 156 0.0 0.0 0.00 0.00 0.00 79 1015.3
20260903070423 75 156 0.0 0.0 0.00 0.00 0.00 79 1015.3
20260903065920 75 156 0.0 0.0 0.00 0.00 0.00 79 1015.3
20260903065353 76 156 0.0 0.0 0.00 0.00 0.00 79 1015.2
20260903064826 76 156 0.0 0.0 0.00 0.00 0.00 78 1015.2
20260903064258 76 156 0.0 0.0 0.00 0.00 0.00 77 1015.3
20260903064242 76 156 0.0 0.0 0.00 0.00 0.00 78 1015.2
20260903063228 76 156 0.0 0.0 0.00 0.00 0.00 77 1015.3
20260903062727 76 156 0.0 0.0 0.00 0.00 0.00 77 1015.2
20260903062640 77 156 0.0 0.0 0.00 0.00 0.00 76 1015.2
20260903061657 77 156 0.0 0.0 0.00 0.00 0.00 77 1015.1
20260903061131 77 156 0.0 0.0 0.00 0.00 0.00 76 1015.2
20260903060603 77 156 0.0 0.0 0.00 0.00 0.00 76 1015.1
20260903060530 77 156 0.0 0.0 0.00 0.00 0.00 76 1015.1
20260903055534 77 156 0.0 0.0 0.00 0.00 0.00 75 1015.1
20260903055520 77 156 0.0 0.0 0.00 0.00 0.00 74 1015.1
20260903054520 78 156 0.0 0.0 0.00 0.00 0.00 74 1015.1
20260903054016 78 156 0.0 0.0 0.00 0.00 0.00 73 1015.0
20260903053519 78 156 0.0 0.0 0.00 0.00 0.00 73 1015.0
20260903052951 78 156 0.0 0.0 0.00 0.00 0.00 72 1015.1
20260903052448 79 156 0.0 0.0 0.00 0.00 0.00 72 1015.1
20260903051931 79 156 0.0 0.0 0.00 0.00 0.00 72 1015.0
20260903051432 79 156 0.0 0.0 0.00 0.00 0.00 71 1015.0
20260903050930 79 156 0.0 0.0 0.00 0.00 0.00 71 1014.9
20260903050432 80 156 0.0 0.0 0.00 0.00 0.00 70 1015.0
20260903045907 80 156 0.0 0.0 0.00 0.00 0.00 70 1015.0
20260903045349 80 156 0.0 0.0 0.00 0.00 0.00 70 1015.0
20260903044848 80 156 0.0 0.0 0.00 0.00 0.00 70 1014.9
20260903044326 81 156 0.0 0.0 0.00 0.00 0.00 69 1015.0
20260903043758 81 156 0.0 0.0 0.00 0.00 0.00 68 1015.0
20260903043256 81 156 0.0 0.0 0.00 0.00 0.00 68 1015.0
20260903043245 82 156 0.0 0.0 0.00 0.00 0.00 68 1015.0
20260903042250 82 156 0.0 0.0 0.00 0.00 0.00 67 1015.1
20260903041730 82 156 0.0 1.0 0.00 0.00 0.00 67 1015.1
20260903041653 82 89 0.0 1.0 0.00 0.00 0.00 66 1015.0
20260903041113 82 110 0.0 1.0 0.00 0.00 0.00 66 1015.1
20260903040555 83 110 0.0 1.0 0.00 0.00 0.00 66 1015.1
20260903035610 83 109 0.0 1.0 0.00 0.00 0.00 65 1015.0
20260903035059 83 109 0.0 0.0 0.00 0.00 0.00 65 1015.0
20260903034558 83 109 0.0 1.0 0.00 0.00 0.00 64 1015.0
20260903034058 84 109 0.0 1.0 0.00 0.00 0.00 64 1015.0
20260903033557 84 120 0.0 1.0 0.00 0.00 0.00 63 1015.1
20260903033038 84 108 0.0 1.0 0.00 0.00 0.00 63 1015.0
20260903032513 85 41 0.0 2.0 0.00 0.00 0.00 63 1015.1
20260903032440 85 359 0.0 5.0 0.00 0.00 0.00 63 1015.0
20260903031428 85 139 0.0 5.0 0.00 0.00 0.00 62 1014.9
20260903030900 85 79 0.0 1.0 0.00 0.00 0.00 62 1015.0
20260903030334 85 29 0.0 2.0 0.00 0.00 0.00 62 1014.9
20260903025832 85 143 0.0 2.0 0.00 0.00 0.00 62 1014.9
20260903025332 85 115 0.0 2.0 0.00 0.00 0.00 62 1014.9
20260903024833 85 130 0.0 2.0 0.00 0.00 0.00 62 1015.0
20260903024311 86 136 0.0 2.0 0.00 0.00 0.00 61 1014.9
20260903023807 86 98 0.0 2.0 0.00 0.00 0.00 61 1014.8
20260903023304 86 49 0.0 2.0 0.00 0.00 0.00 61 1014.9
20260903022742 86 137 0.0 2.0 0.00 0.00 0.00 60 1014.8
20260903022210 86 252 0.0 1.0 0.00 0.00 0.00 60 1014.7
20260903021644 87 127 0.0 1.0 0.00 0.00 0.00 60 1014.7
20260903021559 87 95 0.0 2.0 0.00 0.00 0.00 59 1014.6
20260903020615 87 122 0.0 2.0 0.00 0.00 0.00 59 1014.5
20260903020108 87 129 0.0 1.0 0.00 0.00 0.00 59 1014.5
20260903020038 87 137 0.0 2.0 0.00 0.00 0.00 58 1014.3
20260903015047 87 118 0.0 2.0 0.00 0.00 0.00 58 1014.2
20260903014543 88 274 0.0 2.0 0.00 0.00 0.00 57 1014.1
20260903014017 88 134 0.0 2.0 0.00 0.00 0.00 57 1014.0
20260903013517 88 84 0.0 2.0 0.00 0.00 0.00 56 1013.9
20260903013000 88 124 0.0 2.0 0.00 0.00 0.00 56 1013.7
20260903012501 89 124 0.0 2.0 0.00 0.00 0.00 55 1013.6
20260903011958 89 130 0.0 2.0 0.00 0.00 0.00 55 1013.6
20260903011457 89 103 0.0 4.0 0.00 0.00 0.00 54 1013.5
20260903010953 89 310 0.0 4.0 0.00 0.00 0.00 53 1013.4
20260903010442 89 134 0.0 2.0 0.00 0.00 0.00 52 1013.4